Regional Weather Roundup
Issued by NWS

Home | Current Version | Previous Version | Text Only | Print | Product List | Glossary On
Versions: 1 2 3 4 5 6 7 8 9 10 11 12 13 14 15 16 17 18 19 20 21 22 23 24 25 26 27 28 29 30 31 32 33 34 35 36 37 38 39 40 41 42 43 44 45 46 47 48 49 50
000
ASUS44 KFWD 252315
RWRTX
NORTH TEXAS HOURLY WEATHER ROUNDUP
NATIONAL WEATHER SERVICE FORT WORTH TX
600 PM CDT SAT OCT 25 2014

NOTE: "FAIR" INDICATES FEW OR NO CLOUDS BELOW 12,000 FEET WITH NO
SIGNIFICANT WEATHER AND/OR OBSTRUCTIONS TO VISIBILITY.

TXZ118-119-260000-
DALLAS/FORT WORTH METROPLEX

CITY           SKY/WX    TMP DP  RH WIND       PRES   REMARKS
DFW AIRPORT    CLEAR     86  59  39 S8        30.04F
DALLAS LOVE    CLEAR     87  59  38 SW6       30.04F
FTW MEACHAM    CLEAR     88  59  37 S5        30.04F
DAL-EXECUTIVE  CLEAR     87  58  37 S6        30.05F
FTW-ALLIANCE   CLEAR     86  58  38 S6        30.04F
FTW-NAS-JRB    CLEAR     91  56  30 S9        30.08F
FTW-SPINKS     CLEAR     86  57  37 SE8       30.07F
ARLINGTON      CLEAR     87  58  37 SE8       30.05F
GRAND PRAIRIE  CLEAR     86  61  42 MISG        N/A
ADDISON        CLEAR     86  55  35 SW7       30.06F
MESQUITE       CLEAR     84  57  39 S6        30.05F
LANCASTER      CLEAR     86  57  36 CALM      30.06F
$$

TXZ091>094-102>105-117-120-121-131>134-260000-
NORTH CENTRAL TEXAS

CITY           SKY/WX    TMP DP  RH WIND       PRES   REMARKS
SHRMAN/DENISON CLEAR     85  63  46 S7        30.05F
GAINESVILLE    CLEAR     85  60  42 SW5       30.07S
BOWIE          CLEAR     85  60  41 CALM      30.05F
BRIDGEPORT     CLEAR     87  59  38 S7        30.06F
DECATUR        CLEAR     86  54  32 S7        30.06F
DENTON         CLEAR     85  59  41 S8        30.04F
MCKINNEY       CLEAR     85  60  42 S6        30.05F
GREENVILLE     CLEAR     86  59  39 S6        30.06S
ROCKWALL       CLEAR     85  61  44 S7        30.05S
TERRELL        CLEAR     85  62  46 S7        30.06F
WAXAHACHIE     CLEAR     85  60  42 S7        30.07F
CLEBURNE       CLEAR     86  61  42 S6        30.08S
GRANBURY       CLEAR     89  56  32 S7        30.06F
$$

TXZ083>090-098>101-113>116-127>130-139>142-154-155-260000-
WESTERN NORTH TEXAS

CITY           SKY/WX    TMP DP  RH WIND       PRES   REMARKS
WICHITA FALLS  CLEAR     88  55  32 S10       30.02F
WF-KICKAPOO    CLEAR     88  52  29 S5        30.04F
VERNON         CLEAR     90  46  22 S10       30.03F
ABILENE        SUNNY     87  50  27 S9        30.08F
ABILENE-DYESS  SUNNY     86  53  31 S10       30.07F
BRECKENRIDGE   CLEAR     89  48  24 SW8       30.05F HAZE
GRAHAM         CLEAR     90  54  29 S5        30.03S
MINERAL WELLS  CLEAR     88  54  31 S8        30.04S
STEPHENVILLE   CLEAR     85  55  34 S3        30.10F
COMANCHE       CLEAR     86  55  34 S8        30.08F
BROWNWOOD      CLEAR     84  52  32 SE7       30.07F
COLEMAN        SUNNY     88  53  30 S9        30.08F
BRADY          SUNNY     86  54  32 SE7       30.09S
$$

TXZ143>147-156>162-174-175-260000-
CENTRAL TEXAS

CITY           SKY/WX    TMP DP  RH WIND       PRES   REMARKS
WACO           CLEAR     84  60  44 S7        30.06F
WACO-TSTC      CLEAR     84  59  42 S6        30.06F
WACO-MCGREGOR  CLEAR     86  57  37 S8        30.07F
HILLSBORO      CLEAR     86  56  35 S7        30.07S
CORSICANA      CLEAR     84  60  44 S5        30.08F
MEXIA          CLEAR     82  62  50 S6        30.07F
HEARNE         CLEAR     84  62  47 CALM      30.09S HAZE
CAMERON        CLEAR     84  62  46 SE5       30.08S
TEMPLE         CLEAR     82  57  42 S9        30.07F
KILLEEN        CLEAR     84  57  40 S8        30.08F
KILLEEN-SKYLRK CLEAR     84  57  39 S8        30.07S
FORT HOOD      CLEAR     87  59  38 SE7       30.08S
GATESVILLE     CLEAR     86  57  37 CALM      30.09F
HAMILTON       CLEAR     85  55  35 S7        30.10S
LAMPASAS       CLEAR     84  57  38 SE6       30.08F
$$

TXZ095>097-106>112-122>126-135>138-148>153-164>167-260000-
EAST TEXAS

CITY           SKY/WX    TMP DP  RH WIND       PRES   REMARKS
PARIS          CLEAR     82  61  47 S6        30.06S
SULPHUR SPRNGS CLEAR     85  61  44 S7        30.07F
MOUNT PLEASANT CLEAR     83  62  50 CALM      30.07F
MINEOLA        CLEAR     84  63  48 CALM      30.07F
TYLER          CLEAR     83  63  50 S7        30.07F
LONGVIEW       CLEAR     82  63  52 W3        30.07S
MARSHALL       CLEAR     82  65  55 CALM      30.09S
ATHENS         CLEAR     81  61  50 CALM      30.07S
PALESTINE      CLEAR     82  64  54 CALM      30.09F
JACKSONVILLE   CLEAR     81  63  54 S3        30.11F
HENDERSON      CLEAR     80  64  57 CALM      30.09S
NACOGDOCHES    CLEAR     81  64  57 SW3       30.09S
LUFKIN         CLEAR     84  63  49 CALM      30.09S
$$

SUPPLEMENTAL OBSERVATIONS (CENTRAL)

CITY           SKY/WX    TMP DP  RH WIND       PRES   REMARKS
CADDO GRASSLND   N/A     84  63  48 S1          N/A
PAT MAYSE LAKE   N/A     84  61  45 SE1         N/A
PALESTINE        N/A     81  64  57 S2          N/A
LAKE LIMESTONE   N/A     84  63  48 S2          N/A
MCGREGOR         N/A     84  57  39 SE7         N/A
TEMPLE           N/A     84  57  39 SE6         N/A
$$

SUPPLEMENTAL OBSERVATIONS (WEST)

CITY           SKY/WX    TMP DP  RH WIND       PRES   REMARKS
MILLERS CREEK    N/A     88  50  27 S6          N/A
POSSUM KINGDOM   N/A     88  50  27 S7          N/A
LBJ GRASSLAND    N/A     88  55  33 S6          N/A
GRANBURY         N/A     88  54  31 S8          N/A
COMANCHE         N/A     84  52  32 S6          N/A
HAMBY            N/A     88  48  25 S12         N/A
IVIE RESERVOIR   N/A     90  50  25 S6          N/A
COLORADO BEND    N/A     82  54  36 SE7         N/A
$$

SUPPLEMENTAL OBSERVATIONS (EAST)

CITY           SKY/WX    TMP DP  RH WIND       PRES   REMARKS
CLARKSVILLE      N/A    N/A N/A N/A S6          N/A
TEXARKANA        N/A     81  64  57 SW1         N/A
LINDEN           N/A     81  64  57 SW1         N/A
CADDO LAKE       N/A     75  70  83 CALM        N/A
GILMER           N/A     82  64  54 SW1         N/A
HENDERSON        N/A     81  63  54 S3          N/A
LUFKIN           N/A     82  64  54 MISG        N/A
N SABINE NF      N/A     75  63  64 MISG        N/A
S SABINE NF      N/A     72  64  78 N1          N/A
$$

SUPPLEMENTAL OBSERVATIONS ARE A COLLECTION OF AUTOMATED INSTRUMENTS
THAT ARE MAINTAINED BY A VARIETY OF FEDERAL AND STATE AGENCIES.
CERTAIN ELEMENTS...SUCH AS HUMIDITY VALUES AND SUSTAINED WIND
SPEEDS...MAY BE APPROXIMATED.




USA.gov is the U.S. government's official web portal to all federal, state and local government web resources and services.